Weather History for Hoquiam, WA

Change the Weather History Date:

Tuesday, January 1, 2013

  Actual Average Record
Temperature  
Mean Temperature 36 °F 42 °F  
Max Temperature 39 °F 46 °F 55 °F (1964)
Min Temperature 32 °F 37 °F 17 °F (1979)
Degree Days  
Heating Degree Days 30 23  
Month to date heating degree days 23  
Cooling Degree Days 0 0  
Month to date cooling degree days 0  
Year to date cooling degree days 0  
Moisture  
Dew Point 33 °F    
Average Humidity 94    
Maximum Humidity 100    
Minimum Humidity 86    
Precipitation  
Precipitation 0.01 in 0.34 in 3.32 in (2003)
Month to date precipitation 0.34  
Year to date precipitation 0.34  
Sea Level Pressure  
Sea Level Pressure 30.41 in    
Wind  
Wind Speed 8 mph (ENE)    
Max Wind Speed 20 mph    
Max Gust Speed 25 mph    
Visibility 8 miles    
Events Fog    
T = Trace of Precipitation, MM = Missing Value Source: NWS Daily Summary

Daily Weather History Graph

Daily Weather History Graph

Search for Another Location

Airport:

Trip Planner

Search our weather history database for the weather conditions in past years. The results will help you decide how hot, cold, wet, or windy it might be!

Date:

Astronomy

Jan. 01, 2013 Rise Set
Actual Time 8:01 AM PST 4:37 PM PST
Civil Twilight 7:26 AM PST 5:13 PM PST
Nautical Twilight 6:47 AM PST 5:51 PM PST
Astronomical Twilight 6:10 AM PST 6:28 PM PST
Moon 9:33 PM PST (1/1) 9:59 AM PST (1/1)
Length of Visible Light 9h 46m
Length of Day
8h 36m
Waning Gibbous, 82% of the Moon is Illuminated
Jan 1
Waning Gibbous
Jan 4
Last Quarter
Jan 11
New
Jan 18
First Quarter
Jan 26
Full

Hourly Weather History & Observations

Time (PST) Temp. Windchill Dew Point Humidity Pressure Visibility Wind Dir Wind Speed Gust Speed Precip Events Conditions
12:05 AM 32.0 °F - 32.0 °F 100% 30.43 in 4.0 mi Calm Calm - N/A   Scattered Clouds
12:53 AM 33.1 °F 26.9 °F 32.0 °F 96% 30.44 in 8.0 mi East 6.9 mph - N/A   Clear
1:16 AM 33.8 °F 28.6 °F 32.0 °F 93% 30.43 in 2.0 mi ENE 5.8 mph - N/A   Partly Cloudy
1:19 AM 32.0 °F 26.4 °F 32.0 °F 100% 30.43 in 1.0 mi ENE 5.8 mph - N/A   Mist
1:25 AM 32.0 °F 25.6 °F 32.0 °F 100% 30.43 in 0.2 mi ENE 6.9 mph - N/A Fog Fog
1:53 AM 32.0 °F 27.5 °F 32.0 °F 100% 30.45 in 0.2 mi NNE 4.6 mph - N/A Fog Fog
2:09 AM 32.0 °F 24.2 °F 32.0 °F 100% 30.44 in 0.2 mi ENE 9.2 mph - N/A Fog Fog
2:23 AM 32.0 °F 24.8 °F 32.0 °F 100% 30.44 in 0.5 mi ENE 8.1 mph - N/A Fog Fog
2:30 AM 32.0 °F 24.2 °F 32.0 °F 100% 30.44 in 2.0 mi ENE 9.2 mph - N/A   Mostly Cloudy
2:35 AM 32.0 °F 25.6 °F 32.0 °F 100% 30.44 in 4.0 mi ENE 6.9 mph - N/A   Scattered Clouds
2:53 AM 32.0 °F 25.6 °F 32.0 °F 100% 30.45 in 7.0 mi NE 6.9 mph - N/A   Clear
3:53 AM 33.1 °F 24.4 °F 32.0 °F 96% 30.43 in 9.0 mi NE 11.5 mph - N/A   Clear
4:32 AM 33.8 °F 25.3 °F 33.8 °F 100% 30.42 in 8.0 mi ENE 11.5 mph - N/A   Scattered Clouds
4:50 AM 33.8 °F 25.8 °F 33.8 °F 100% 30.41 in 8.0 mi ENE 10.4 mph - N/A   Mostly Cloudy
4:53 AM 34.0 °F 27.2 °F 33.1 °F 96% 30.43 in 8.0 mi ENE 8.1 mph - N/A   Mostly Cloudy
5:06 AM 33.8 °F 24.8 °F 33.8 °F 100% 30.41 in 8.0 mi ENE 12.7 mph - N/A   Scattered Clouds
5:53 AM 34.0 °F 25.5 °F 32.0 °F 92% 30.43 in 10.0 mi ENE 11.5 mph - N/A   Clear
6:53 AM 34.0 °F 26.0 °F 32.0 °F 92% 30.42 in 10.0 mi ENE 10.4 mph - N/A   Clear
7:53 AM 34.0 °F 26.6 °F 32.0 °F 92% 30.43 in 10.0 mi ENE 9.2 mph - N/A   Clear
8:49 AM 33.8 °F 25.3 °F 33.8 °F 100% 30.44 in 9.0 mi ENE 11.5 mph - N/A   Mostly Cloudy
8:53 AM 34.0 °F 25.5 °F 33.1 °F 96% 30.45 in 9.0 mi ENE 11.5 mph - N/A   Mostly Cloudy
9:49 AM 35.6 °F 27.5 °F 33.8 °F 93% 30.45 in 10.0 mi ENE 11.5 mph 20.7 mph 0.01 in   Scattered Clouds
9:53 AM 35.1 °F 26.4 °F 33.1 °F 92% 30.47 in 10.0 mi ENE 12.7 mph - 0.01 in   Scattered Clouds
10:17 AM 35.6 °F 28.6 °F 33.8 °F 93% 30.45 in 10.0 mi ENE 9.2 mph - N/A   Mostly Cloudy
10:31 AM 37.4 °F 29.3 °F 33.8 °F 87% 30.45 in 10.0 mi ENE 12.7 mph - N/A   Scattered Clouds
10:53 AM 37.0 °F 28.9 °F 35.1 °F 93% 30.46 in 10.0 mi ENE 12.7 mph - N/A   Clear
11:53 AM 39.0 °F 31.4 °F 36.0 °F 89% 30.43 in 10.0 mi ENE 12.7 mph - N/A   Clear
12:53 PM 39.9 °F 31.8 °F 36.0 °F 86% 30.40 in 10.0 mi ENE 15.0 mph - N/A   Clear
1:53 PM 39.0 °F 31.4 °F 36.0 °F 89% 30.39 in 10.0 mi ENE 12.7 mph - N/A   Clear
2:53 PM 39.9 °F 32.9 °F 36.0 °F 86% 30.38 in 10.0 mi ENE 11.5 mph - N/A   Clear
3:53 PM 37.9 °F 30.0 °F 35.1 °F 89% 30.39 in 10.0 mi ENE 12.7 mph - N/A   Clear
4:53 PM 37.0 °F 26.7 °F 34.0 °F 89% 30.37 in 10.0 mi NE 19.6 mph 25.3 mph N/A   Clear
5:53 PM 37.0 °F 28.1 °F 34.0 °F 89% 30.35 in 10.0 mi ENE 15.0 mph - N/A   Clear
6:53 PM 37.0 °F 27.7 °F 34.0 °F 89% 30.34 in 10.0 mi ENE 16.1 mph - N/A   Clear
7:53 PM 37.0 °F 27.7 °F 34.0 °F 89% 30.32 in 10.0 mi ENE 16.1 mph 23.0 mph N/A   Clear
8:53 PM 36.0 °F 27.1 °F 33.1 °F 89% 30.31 in 10.0 mi ENE 13.8 mph - N/A   Clear
9:53 PM 35.1 °F 25.9 °F 32.0 °F 89% 30.30 in 10.0 mi ENE 13.8 mph - N/A   Clear
10:53 PM 35.1 °F 26.4 °F 32.0 °F 89% 30.31 in 10.0 mi ENE 12.7 mph - N/A   Clear
11:53 PM 34.0 °F 25.0 °F 32.0 °F 92% 30.30 in 10.0 mi ENE 12.7 mph - N/A   Clear